Airfield :
LOGIN :

Register | Disclaimer

   EN    FR    IT 

 










Legend :    VFR   Marginal VFR   IFR   Intensive IFR   Very Intensive IFR
Visi :
Ceiling :
>= 8 km
>= 3000ft
5 to 8 km
1000 to 3000 ft
1500m to 5 km
500 to 1000 ft
800 to 1500m
200 to 500 ft
< 800m
< 200 ft
Symbols :   Thunderstorms  Fog  Heavy snow  Heavy precipitations  Wind > 20 kt
SIGMETs :     Misc.  Thunderstorms  Icing  Turbulence  Mountain Waves  Volcanic Ashes






- Airport Elevation : 123 ft
- IATA code : BLQ


LIPE - Bologna Guglielmo Marconi

CURRENT METAR :
  • 182020Z 18012KT 140V200 9999 FEW060 16/07 Q1010

EXPIRED METARs :
  • 181950Z 18012KT 9999 SCT050 17/06 Q1010
  • 181920Z 21014G24KT 9999 SCT055 18/07 Q1010
  • 181850Z 22014G24KT 9999 FEW060 19/03 Q1010
  • 181820Z 20013KT 9999 FEW040 19/03 Q1010
  • 181750Z 20011KT 9999 FEW040 20/03 Q1010

TAF TAF LIPE
Valid from the 18 at 18:00 until the 19 at 18:00 UTC


181700Z 1818/1918 21015KT 9999 FEW030
BECMG 1822/1824 VRB05KT
TEMPO 1900/1906 4000 SHRA



MET'MAP, your aeronautical weather chart ! - Copyright ORBIFLY December 2007 - Disclaimer

ORBIFLY MET'MAP TEAM :

Programming & Development : Alexandra Zaïnal
Concept & original design : Baudouin d'Aumeries
Assistance for programming : Marc-Olivier Méhu
Technical & hardware support : Manuel Goepfert

Contact : metmap@orbifly.com




SOURCES & CREDITS :

   NOAA